User: anonymous   Login
Location: Eaton Estates
(41.3089°N, 82.0057°W)
Time: 04:36:01
(UTC+00:00)
Language:

BlueWalker 3 - Orbit

View from above orbital plane
View from above orbital plane
View from above satellite
View from above satellite

Ground track
Ground track

The orbit data is extracted from the following two-line orbital elements,

1 53807U 22111AL  24055.83318427  .00009905  00000-0  41295-3 0  9999
2 53807  53.2405 355.2166 0010478 109.9160 250.2969 15.24286938 80939
Epoch (UTC): 24 February 2024 19:59:47
Eccentricity: 0.0010478
inclination: 53.2405°
perigee height: 486 km
apogee height: 500 km
right ascension of ascending node: 355.2166°
argument of perigee: 109.9160°
revolutions per day: 15.24286938
mean anomaly at epoch: 250.2969°
orbit number at epoch: 8093

The dashed part of the orbit path shows where the satellite is in the earth's shadow,  

DLR